| time (UTC) | temp C | wind direction | speed KPH | gust KPH | rain 1hr cm | rain 24hr cm | rain mn cm | humidity % | barometer mb |
| 20260831193003 | 19 | 9 | 8.0 | 14.5 | 0.00 | 0.00 | 0.00 | 60 | 1010.8 |
| 20260831192505 | 19 | 331 | 8.0 | 14.5 | 0.00 | 0.00 | 0.00 | 59 | 1010.9 |
| 20260831192316 | 19 | 20 | 8.0 | 11.3 | 0.00 | 0.00 | 0.00 | 61 | 1010.9 |
| 20260831191502 | 19 | 14 | 8.0 | 12.9 | 0.00 | 0.00 | 0.00 | 62 | 1010.9 |
| 20260831191010 | 18 | 359 | 9.7 | 17.7 | 0.00 | 0.00 | 0.00 | 63 | 1011.2 |
| 20260831190505 | 18 | 354 | 8.0 | 17.7 | 0.00 | 0.00 | 0.00 | 61 | 1011.2 |
| 20260831190002 | 18 | 22 | 6.4 | 14.5 | 0.00 | 0.00 | 0.00 | 64 | 1011.2 |
| 20260831185454 | 18 | 42 | 9.7 | 24.1 | 0.00 | 0.00 | 0.00 | 62 | 1011.3 |
| 20260831184953 | 18 | 17 | 12.9 | 24.1 | 0.00 | 0.00 | 0.00 | 64 | 1011.3 |
| 20260831184537 | 18 | 344 | 12.9 | 17.7 | 0.00 | 0.00 | 0.00 | 64 | 1011.3 |
| 20260831183427 | 18 | 34 | 12.9 | 22.5 | 0.00 | 0.00 | 0.00 | 60 | 1011.4 |
| 20260831182932 | 18 | 9 | 11.3 | 17.7 | 0.00 | 0.00 | 0.00 | 64 | 1011.4 |
| 20260831182721 | 18 | 28 | 9.7 | 17.7 | 0.00 | 0.00 | 0.00 | 64 | 1011.8 |
| 20260831182218 | 18 | 335 | 8.0 | 17.7 | 0.00 | 0.00 | 0.00 | 63 | 1011.8 |
| 20260831181701 | 18 | 9 | 8.0 | 17.7 | 0.00 | 0.00 | 0.00 | 63 | 1011.8 |
| 20260831180903 | 18 | 59 | 8.0 | 19.3 | 0.00 | 0.00 | 0.00 | 63 | 1011.8 |
| 20260831180402 | 18 | 32 | 6.4 | 17.7 | 0.00 | 0.00 | 0.00 | 64 | 1011.8 |
| 20260831175902 | 18 | 53 | 8.0 | 20.9 | 0.00 | 0.00 | 0.00 | 64 | 1011.8 |
| 20260831175659 | 18 | 37 | 9.7 | 20.9 | 0.00 | 0.00 | 0.00 | 64 | 1011.9 |
| 20260831174905 | 17 | 60 | 12.9 | 20.9 | 0.00 | 0.00 | 0.00 | 65 | 1011.9 |
| 20260831174402 | 17 | 21 | 12.9 | 22.5 | 0.00 | 0.00 | 0.00 | 65 | 1011.9 |
| 20260831173904 | 17 | 45 | 12.9 | 22.5 | 0.00 | 0.00 | 0.00 | 66 | 1012.2 |
| 20260831173714 | 17 | 21 | 12.9 | 19.3 | 0.00 | 0.00 | 0.00 | 68 | 1012.2 |
| 20260831172903 | 16 | 359 | 11.3 | 19.3 | 0.00 | 0.00 | 0.00 | 72 | 1012.2 |
| 20260831172402 | 16 | 359 | 11.3 | 20.9 | 0.00 | 0.00 | 0.00 | 73 | 1012.3 |
| 20260831172009 | 16 | 26 | 11.3 | 20.9 | 0.00 | 0.00 | 0.00 | 73 | 1012.3 |
| 20260831170906 | 16 | 19 | 8.0 | 16.1 | 0.00 | 0.00 | 0.00 | 74 | 1012.3 |
| 20260831170405 | 16 | 354 | 9.7 | 17.7 | 0.00 | 0.00 | 0.00 | 75 | 1012.3 |
| 20260831165909 | 16 | 335 | 9.7 | 17.7 | 0.00 | 0.00 | 0.00 | 76 | 1012.3 |
| 20260831165414 | 15 | 346 | 8.0 | 16.1 | 0.00 | 0.00 | 0.00 | 77 | 1012.3 |
| 20260831165159 | 15 | 13 | 8.0 | 12.9 | 0.00 | 0.00 | 0.00 | 77 | 1012.3 |
| 20260831164401 | 15 | 9 | 8.0 | 11.3 | 0.00 | 0.00 | 0.00 | 78 | 1012.3 |
| 20260831163855 | 15 | 13 | 6.4 | 11.3 | 0.00 | 0.00 | 0.00 | 79 | 1012.4 |
| 20260831163345 | 15 | 347 | 6.4 | 11.3 | 0.00 | 0.00 | 0.00 | 80 | 1012.4 |
| 20260831162838 | 15 | 344 | 6.4 | 11.3 | 0.00 | 0.00 | 0.00 | 81 | 1012.4 |
| 20260831162340 | 15 | 340 | 6.4 | 9.7 | 0.00 | 0.00 | 0.00 | 81 | 1012.6 |
| 20260831161841 | 15 | 352 | 6.4 | 9.7 | 0.00 | 0.00 | 0.00 | 82 | 1012.6 |
| 20260831161336 | 15 | 352 | 8.0 | 11.3 | 0.00 | 0.00 | 0.00 | 83 | 1012.6 |
| 20260831161128 | 14 | 333 | 8.0 | 11.3 | 0.00 | 0.00 | 0.00 | 83 | 1012.8 |
| 20260831160335 | 14 | 9 | 8.0 | 11.3 | 0.00 | 0.00 | 0.00 | 84 | 1012.8 |
| 20260831155834 | 14 | 327 | 8.0 | 11.3 | 0.00 | 0.00 | 0.00 | 84 | 1012.8 |
| 20260831155332 | 14 | 354 | 6.4 | 11.3 | 0.00 | 0.00 | 0.00 | 84 | 1012.9 |
| 20260831154832 | 14 | 359 | 6.4 | 8.0 | 0.00 | 0.00 | 0.00 | 86 | 1012.9 |
| 20260831154332 | 14 | 344 | 6.4 | 9.7 | 0.00 | 0.00 | 0.00 | 86 | 1012.9 |
| 20260831153831 | 13 | 349 | 6.4 | 9.7 | 0.00 | 0.00 | 0.00 | 87 | 1012.9 |
| 20260831153335 | 13 | 341 | 6.4 | 9.7 | 0.00 | 0.00 | 0.00 | 87 | 1012.9 |
| 20260831153144 | 13 | 13 | 6.4 | 8.0 | 0.00 | 0.00 | 0.00 | 87 | 1012.9 |
| 20260831152333 | 13 | 9 | 6.4 | 8.0 | 0.00 | 0.00 | 0.00 | 87 | 1013.1 |
| 20260831151836 | 13 | 4 | 4.8 | 8.0 | 0.00 | 0.00 | 0.00 | 86 | 1013.1 |
| 20260831151342 | 13 | 21 | 3.2 | 6.4 | 0.00 | 0.00 | 0.00 | 86 | 1013.1 |
| 20260831150838 | 13 | 359 | 3.2 | 4.8 | 0.00 | 0.00 | 0.00 | 86 | 1013.1 |
| 20260831150432 | 13 | 359 | 3.2 | 4.8 | 0.00 | 0.00 | 0.00 | 86 | 1013.1 |
| 20260831145336 | 13 | 22 | 1.6 | 3.2 | 0.00 | 0.00 | 0.00 | 87 | 1013.0 |
| 20260831144831 | 13 | 39 | 1.6 | 3.2 | 0.00 | 0.00 | 0.00 | 87 | 1013.0 |
| 20260831144335 | 13 | 26 | 1.6 | 3.2 | 0.00 | 0.00 | 0.00 | 87 | 1013.0 |
| 20260831143822 | 13 | 47 | 1.6 | 4.8 | 0.00 | 0.00 | 0.00 | 88 | 1013.0 |
| 20260831143312 | 13 | 16 | 1.6 | 4.8 | 0.00 | 0.00 | 0.00 | 88 | 1013.0 |
| 20260831142808 | 12 | 16 | 3.2 | 4.8 | 0.00 | 0.00 | 0.00 | 88 | 1013.0 |
| 20260831142306 | 12 | 9 | 1.6 | 3.2 | 0.00 | 0.00 | 0.00 | 88 | 1013.0 |
| 20260831141802 | 12 | 66 | 1.6 | 3.2 | 0.00 | 0.00 | 0.00 | 88 | 1013.0 |
| 20260831141302 | 12 | 81 | 0.0 | 1.6 | 0.00 | 0.00 | 0.00 | 88 | 1013.0 |
| 20260831140841 | 12 | 81 | 0.0 | 0.0 | 0.00 | 0.00 | 0.00 | 87 | 1013.0 |
| 20260831135805 | 12 | 81 | 0.0 | 1.6 | 0.00 | 0.00 | 0.00 | 87 | 1013.0 |
| 20260831135302 | 12 | 81 | 1.6 | 1.6 | 0.00 | 0.00 | 0.00 | 86 | 1012.9 |
| 20260831134801 | 12 | 82 | 1.6 | 1.6 | 0.00 | 0.00 | 0.00 | 86 | 1012.9 |
| 20260831134303 | 12 | 82 | 1.6 | 1.6 | 0.00 | 0.00 | 0.00 | 85 | 1012.9 |
| 20260831133806 | 12 | 82 | 1.6 | 3.2 | 0.00 | 0.00 | 0.00 | 85 | 1013.1 |
| 20260831133556 | 12 | 82 | 1.6 | 3.2 | 0.00 | 0.00 | 0.00 | 85 | 1013.1 |
| 20260831132802 | 12 | 82 | 0.0 | 1.6 | 0.00 | 0.00 | 0.00 | 85 | 1013.1 |
| 20260831132308 | 12 | 82 | 0.0 | 1.6 | 0.00 | 0.00 | 0.00 | 85 | 1013.2 |
| 20260831131806 | 12 | 82 | 1.6 | 3.2 | 0.00 | 0.00 | 0.00 | 85 | 1013.2 |
| 20260831131302 | 12 | 82 | 1.6 | 3.2 | 0.00 | 0.00 | 0.00 | 85 | 1013.2 |
| 20260831130802 | 12 | 54 | 1.6 | 3.2 | 0.00 | 0.00 | 0.00 | 85 | 1013.3 |
| 20260831130301 | 12 | 9 | 0.0 | 3.2 | 0.00 | 0.00 | 0.00 | 86 | 1013.3 |
| 20260831130051 | 12 | 9 | 0.0 | 1.6 | 0.00 | 0.00 | 0.00 | 86 | 1013.3 |
| 20260831125552 | 12 | 9 | 0.0 | 3.2 | 0.00 | 0.00 | 0.00 | 86 | 1013.3 |
| 20260831125102 | 12 | 9 | 1.6 | 3.2 | 0.00 | 0.00 | 0.00 | 86 | 1013.3 |
| 20260831124302 | 12 | 9 | 1.6 | 3.2 | 0.00 | 0.00 | 0.00 | 86 | 1013.3 |
| 20260831123801 | 12 | 9 | 0.0 | 1.6 | 0.00 | 0.00 | 0.00 | 87 | 1013.4 |
| 20260831123308 | 13 | 9 | 0.0 | 1.6 | 0.00 | 0.00 | 0.00 | 87 | 1013.4 |
| 20260831123055 | 13 | 9 | 0.0 | 1.6 | 0.00 | 0.00 | 0.00 | 86 | 1013.4 |
| 20260831122256 | 13 | 9 | 0.0 | 1.6 | 0.00 | 0.00 | 0.00 | 86 | 1013.4 |
| 20260831121756 | 13 | 9 | 0.0 | 0.0 | 0.00 | 0.00 | 0.00 | 86 | 1013.4 |
| 20260831121237 | 13 | 9 | 0.0 | 0.0 | 0.00 | 0.00 | 0.00 | 86 | 1013.4 |
| 20260831120731 | 13 | 9 | 0.0 | 1.6 | 0.00 | 0.00 | 0.00 | 86 | 1013.6 |
| 20260831120226 | 13 | 9 | 0.0 | 1.6 | 0.00 | 0.00 | 0.00 | 86 | 1013.6 |
| 20260831115723 | 13 | 9 | 0.0 | 1.6 | 0.00 | 0.00 | 0.00 | 85 | 1013.6 |
| 20260831115223 | 13 | 9 | 0.0 | 1.6 | 0.00 | 0.00 | 0.00 | 85 | 1013.7 |
| 20260831114711 | 13 | 9 | 1.6 | 3.2 | 0.00 | 0.00 | 0.00 | 85 | 1013.7 |
| 20260831114208 | 13 | 9 | 1.6 | 3.2 | 0.00 | 0.00 | 0.00 | 85 | 1013.7 |
| 20260831113702 | 13 | 9 | 1.6 | 3.2 | 0.00 | 0.00 | 0.00 | 85 | 1013.8 |
| 20260831113206 | 13 | 9 | 1.6 | 3.2 | 0.00 | 0.00 | 0.00 | 85 | 1013.8 |
| 20260831112706 | 13 | 9 | 1.6 | 3.2 | 0.00 | 0.00 | 0.00 | 85 | 1013.8 |
| 20260831112512 | 13 | 9 | 1.6 | 4.8 | 0.00 | 0.00 | 0.00 | 84 | 1013.9 |
| 20260831111706 | 13 | 9 | 3.2 | 4.8 | 0.00 | 0.00 | 0.00 | 85 | 1013.9 |
| 20260831111205 | 13 | 4 | 1.6 | 4.8 | 0.00 | 0.00 | 0.00 | 85 | 1013.9 |
| 20260831110703 | 13 | 359 | 3.2 | 4.8 | 0.00 | 0.00 | 0.00 | 84 | 1013.9 |
| 20260831110137 | 13 | 359 | 3.2 | 4.8 | 0.00 | 0.00 | 0.00 | 84 | 1013.9 |
| 20260831105635 | 13 | 17 | 3.2 | 4.8 | 0.00 | 0.00 | 0.00 | 83 | 1013.9 |
| 20260831105133 | 13 | 339 | 1.6 | 4.8 | 0.00 | 0.00 | 0.00 | 83 | 1013.9 |
| 20260831104636 | 13 | 21 | 1.6 | 3.2 | 0.00 | 0.00 | 0.00 | 83 | 1013.9 |
| 20260831104131 | 13 | 21 | 1.6 | 3.2 | 0.00 | 0.00 | 0.00 | 83 | 1014.0 |
| 20260831103632 | 13 | 21 | 1.6 | 3.2 | 0.00 | 0.00 | 0.00 | 83 | 1014.0 |
| 20260831103132 | 13 | 21 | 0.0 | 3.2 | 0.00 | 0.00 | 0.00 | 82 | 1014.0 |
| 20260831102625 | 13 | 21 | 0.0 | 1.6 | 0.00 | 0.00 | 0.00 | 82 | 1014.1 |
| 20260831102128 | 13 | 21 | 0.0 | 1.6 | 0.00 | 0.00 | 0.00 | 81 | 1014.1 |
| 20260831101628 | 13 | 20 | 1.6 | 3.2 | 0.00 | 0.00 | 0.00 | 81 | 1014.1 |
| 20260831101106 | 13 | 21 | 1.6 | 3.2 | 0.00 | 0.00 | 0.00 | 81 | 1014.4 |
| 20260831100609 | 13 | 21 | 1.6 | 3.2 | 0.00 | 0.00 | 0.00 | 80 | 1014.4 |
| 20260831100145 | 13 | 21 | 1.6 | 3.2 | 0.00 | 0.00 | 0.00 | 80 | 1014.4 |
| 20260831094603 | 13 | 21 | 0.0 | 1.6 | 0.00 | 0.00 | 0.00 | 80 | 1014.4 |
| 20260831094104 | 13 | 21 | 0.0 | 1.6 | 0.00 | 0.00 | 0.00 | 80 | 1014.5 |
| 20260831093553 | 13 | 21 | 0.0 | 1.6 | 0.00 | 0.00 | 0.00 | 80 | 1014.5 |
| 20260831093050 | 13 | 21 | 0.0 | 3.2 | 0.00 | 0.00 | 0.00 | 80 | 1014.5 |
| 20260831092606 | 14 | 21 | 1.6 | 4.8 | 0.00 | 0.00 | 0.00 | 80 | 1014.4 |
| 20260831092054 | 14 | 20 | 3.2 | 4.8 | 0.00 | 0.00 | 0.00 | 80 | 1014.4 |
| 20260831091546 | 14 | 9 | 3.2 | 4.8 | 0.00 | 0.00 | 0.00 | 80 | 1014.4 |
| 20260831091042 | 14 | 4 | 4.8 | 6.4 | 0.00 | 0.00 | 0.00 | 80 | 1014.6 |
| 20260831090540 | 14 | 15 | 4.8 | 6.4 | 0.00 | 0.00 | 0.00 | 79 | 1014.6 |
| 20260831090039 | 14 | 359 | 4.8 | 6.4 | 0.00 | 0.00 | 0.00 | 79 | 1014.6 |
| 20260831085545 | 14 | 346 | 3.2 | 6.4 | 0.00 | 0.00 | 0.00 | 79 | 1014.9 |
| 20260831085036 | 14 | 4 | 3.2 | 4.8 | 0.00 | 0.00 | 0.00 | 79 | 1014.9 |
| 20260831084532 | 14 | 17 | 4.8 | 6.4 | 0.00 | 0.00 | 0.00 | 79 | 1014.9 |
| 20260831084033 | 14 | 31 | 4.8 | 6.4 | 0.00 | 0.00 | 0.00 | 78 | 1015.0 |
| 20260831083528 | 14 | 29 | 3.2 | 4.8 | 0.00 | 0.00 | 0.00 | 78 | 1015.0 |
| 20260831083029 | 14 | 32 | 3.2 | 4.8 | 0.00 | 0.00 | 0.00 | 79 | 1015.0 |
| 20260831082824 | 14 | 65 | 1.6 | 3.2 | 0.00 | 0.00 | 0.00 | 80 | 1015.0 |
| 20260831082021 | 15 | 13 | 1.6 | 3.2 | 0.00 | 0.00 | 0.00 | 79 | 1015.0 |
| 20260831081515 | 15 | 13 | 1.6 | 3.2 | 0.00 | 0.00 | 0.00 | 79 | 1015.0 |
| 20260831081010 | 15 | 17 | 0.0 | 3.2 | 0.00 | 0.00 | 0.00 | 79 | 1015.1 |
| 20260831080511 | 15 | 17 | 1.6 | 3.2 | 0.00 | 0.00 | 0.00 | 80 | 1015.1 |
| 20260831080003 | 15 | 17 | 1.6 | 4.8 | 0.00 | 0.00 | 0.00 | 79 | 1015.1 |
| 20260831075724 | 15 | 17 | 1.6 | 4.8 | 0.00 | 0.00 | 0.00 | 79 | 1015.1 |
| 20260831074955 | 15 | 9 | 3.2 | 4.8 | 0.00 | 0.00 | 0.00 | 79 | 1015.1 |
| 20260831074435 | 15 | 9 | 3.2 | 4.8 | 0.00 | 0.00 | 0.00 | 79 | 1015.1 |
| 20260831073937 | 15 | 9 | 1.6 | 3.2 | 0.00 | 0.00 | 0.00 | 78 | 1015.4 |
| 20260831073433 | 15 | 9 | 3.2 | 4.8 | 0.00 | 0.00 | 0.00 | 78 | 1015.4 |
| 20260831072931 | 15 | 9 | 3.2 | 4.8 | 0.00 | 0.00 | 0.00 | 77 | 1015.4 |
| 20260831072438 | 15 | 9 | 3.2 | 4.8 | 0.00 | 0.00 | 0.00 | 77 | 1015.4 |
| 20260831071936 | 15 | 9 | 3.2 | 4.8 | 0.00 | 0.00 | 0.00 | 76 | 1015.4 |
| 20260831071433 | 15 | 9 | 3.2 | 4.8 | 0.00 | 0.00 | 0.00 | 77 | 1015.4 |
| 20260831070929 | 15 | 9 | 3.2 | 4.8 | 0.00 | 0.00 | 0.00 | 76 | 1015.5 |
| 20260831070430 | 15 | 9 | 1.6 | 4.8 | 0.00 | 0.00 | 0.00 | 77 | 1015.5 |
| 20260831065932 | 15 | 20 | 3.2 | 4.8 | 0.00 | 0.00 | 0.00 | 77 | 1015.5 |
| 20260831065419 | 15 | 30 | 3.2 | 4.8 | 0.00 | 0.00 | 0.00 | 77 | 1015.6 |
| 20260831064921 | 15 | 15 | 3.2 | 4.8 | 0.00 | 0.00 | 0.00 | 76 | 1015.6 |
| 20260831064419 | 15 | 13 | 1.6 | 3.2 | 0.00 | 0.00 | 0.00 | 76 | 1015.6 |
| 20260831063910 | 16 | 43 | 1.6 | 3.2 | 0.00 | 0.00 | 0.00 | 76 | 1015.8 |
| 20260831063405 | 16 | 21 | 1.6 | 3.2 | 0.00 | 0.00 | 0.00 | 74 | 1015.8 |
| 20260831062906 | 16 | 9 | 1.6 | 3.2 | 0.00 | 0.00 | 0.00 | 74 | 1015.8 |
| 20260831062404 | 16 | 9 | 1.6 | 3.2 | 0.00 | 0.00 | 0.00 | 74 | 1015.9 |
| 20260831062202 | 16 | 9 | 1.6 | 3.2 | 0.00 | 0.00 | 0.00 | 74 | 1015.9 |
| 20260831061402 | 16 | 9 | 3.2 | 4.8 | 0.00 | 0.00 | 0.00 | 72 | 1015.9 |
| 20260831061205 | 16 | 23 | 3.2 | 4.8 | 0.00 | 0.00 | 0.00 | 72 | 1015.9 |
| 20260831060402 | 16 | 9 | 3.2 | 4.8 | 0.00 | 0.00 | 0.00 | 71 | 1015.9 |
| 20260831055902 | 16 | 9 | 3.2 | 4.8 | 0.00 | 0.00 | 0.00 | 71 | 1015.9 |
| 20260831055405 | 16 | 4 | 4.8 | 6.4 | 0.00 | 0.00 | 0.00 | 70 | 1016.0 |
| 20260831055154 | 17 | 351 | 4.8 | 6.4 | 0.00 | 0.00 | 0.00 | 70 | 1016.0 |
| 20260831054654 | 17 | 350 | 3.2 | 4.8 | 0.00 | 0.00 | 0.00 | 69 | 1016.0 |
| 20260831053906 | 17 | 346 | 4.8 | 6.4 | 0.00 | 0.00 | 0.00 | 68 | 1016.1 |
| 20260831053410 | 17 | 341 | 4.8 | 8.0 | 0.00 | 0.00 | 0.00 | 68 | 1016.1 |
| 20260831052909 | 17 | 345 | 4.8 | 8.0 | 0.00 | 0.00 | 0.00 | 69 | 1016.1 |
| 20260831052402 | 17 | 9 | 4.8 | 8.0 | 0.00 | 0.00 | 0.00 | 69 | 1016.3 |
| 20260831051904 | 17 | 9 | 3.2 | 8.0 | 0.00 | 0.00 | 0.00 | 68 | 1016.3 |
| 20260831051711 | 17 | 23 | 4.8 | 8.0 | 0.00 | 0.00 | 0.00 | 69 | 1016.3 |
| 20260831050902 | 17 | 26 | 4.8 | 9.7 | 0.00 | 0.00 | 0.00 | 70 | 1016.3 |
| 20260831050407 | 17 | 9 | 6.4 | 9.7 | 0.00 | 0.00 | 0.00 | 69 | 1016.3 |
| 20260831045914 | 17 | 9 | 4.8 | 8.0 | 0.00 | 0.00 | 0.00 | 68 | 1016.3 |
| 20260831045409 | 17 | 9 | 4.8 | 8.0 | 0.00 | 0.00 | 0.00 | 69 | 1016.4 |
| 20260831044854 | 17 | 15 | 3.2 | 6.4 | 0.00 | 0.00 | 0.00 | 66 | 1016.4 |
| 20260831044353 | 17 | 35 | 3.2 | 6.4 | 0.00 | 0.00 | 0.00 | 65 | 1016.4 |
| 20260831043848 | 17 | 9 | 4.8 | 6.4 | 0.00 | 0.00 | 0.00 | 63 | 1016.5 |
| 20260831043656 | 17 | 344 | 4.8 | 6.4 | 0.00 | 0.00 | 0.00 | 65 | 1016.5 |
| 20260831042834 | 17 | 354 | 3.2 | 6.4 | 0.00 | 0.00 | 0.00 | 65 | 1016.5 |
| 20260831042358 | 17 | 359 | 3.2 | 6.4 | 0.00 | 0.00 | 0.00 | 64 | 1016.5 |
| 20260831041310 | 17 | 38 | 1.6 | 6.4 | 0.00 | 0.00 | 0.00 | 64 | 1016.5 |
| 20260831041110 | 17 | 65 | 1.6 | 4.8 | 0.00 | 0.00 | 0.00 | 64 | 1016.5 |
| 20260831040304 | 17 | 19 | 1.6 | 3.2 | 0.00 | 0.00 | 0.00 | 62 | 1016.5 |
| 20260831040115 | 17 | 19 | 1.6 | 4.8 | 0.00 | 0.00 | 0.00 | 60 | 1016.5 |
| 20260831035306 | 18 | 22 | 1.6 | 4.8 | 0.00 | 0.00 | 0.00 | 58 | 1016.2 |
| 20260831035110 | 18 | 359 | 1.6 | 3.2 | 0.00 | 0.00 | 0.00 | 57 | 1016.2 |
| 20260831034303 | 18 | 346 | 3.2 | 4.8 | 0.00 | 0.00 | 0.00 | 54 | 1016.2 |
| 20260831033803 | 18 | 346 | 3.2 | 6.4 | 0.00 | 0.00 | 0.00 | 54 | 1016.1 |
| 20260831033304 | 18 | 350 | 3.2 | 6.4 | 0.00 | 0.00 | 0.00 | 55 | 1016.1 |
| 20260831032758 | 18 | 342 | 3.2 | 4.8 | 0.00 | 0.00 | 0.00 | 54 | 1016.1 |
| 20260831032301 | 18 | 13 | 3.2 | 4.8 | 0.00 | 0.00 | 0.00 | 54 | 1016.0 |
| 20260831031749 | 19 | 359 | 3.2 | 6.4 | 0.00 | 0.00 | 0.00 | 53 | 1016.0 |
| 20260831031250 | 19 | 359 | 3.2 | 6.4 | 0.00 | 0.00 | 0.00 | 53 | 1016.0 |
| 20260831030738 | 20 | 346 | 3.2 | 8.0 | 0.00 | 0.00 | 0.00 | 51 | 1016.0 |
| 20260831030243 | 20 | 53 | 3.2 | 8.0 | 0.00 | 0.00 | 0.00 | 47 | 1016.0 |
| 20260831025738 | 20 | 57 | 3.2 | 6.4 | 0.00 | 0.00 | 0.00 | 47 | 1016.0 |
| 20260831025239 | 20 | 58 | 3.2 | 6.4 | 0.00 | 0.00 | 0.00 | 47 | 1016.1 |
| 20260831025029 | 20 | 71 | 4.8 | 8.0 | 0.00 | 0.00 | 0.00 | 47 | 1016.1 |
| 20260831024536 | 20 | 64 | 4.8 | 9.7 | 0.00 | 0.00 | 0.00 | 47 | 1016.1 |
| 20260831023733 | 20 | 76 | 6.4 | 9.7 | 0.00 | 0.00 | 0.00 | 46 | 1016.3 |
| 20260831023232 | 20 | 86 | 6.4 | 12.9 | 0.00 | 0.00 | 0.00 | 45 | 1016.3 |
| 20260831022730 | 20 | 104 | 6.4 | 12.9 | 0.00 | 0.00 | 0.00 | 45 | 1016.3 |
| 20260831022218 | 21 | 88 | 6.4 | 11.3 | 0.00 | 0.00 | 0.00 | 44 | 1016.5 |
| 20260831021716 | 21 | 76 | 6.4 | 11.3 | 0.00 | 0.00 | 0.00 | 44 | 1016.5 |
| 20260831021209 | 21 | 80 | 6.4 | 11.3 | 0.00 | 0.00 | 0.00 | 44 | 1016.5 |
| 20260831021016 | 21 | 60 | 6.4 | 11.3 | 0.00 | 0.00 | 0.00 | 44 | 1016.5 |
| 20260831020213 | 21 | 81 | 8.0 | 16.1 | 0.00 | 0.00 | 0.00 | 43 | 1016.5 |
| 20260831015715 | 21 | 69 | 8.0 | 16.1 | 0.00 | 0.00 | 0.00 | 43 | 1016.5 |
| 20260831015210 | 21 | 54 | 8.0 | 14.5 | 0.00 | 0.00 | 0.00 | 43 | 1016.5 |
| 20260831015011 | 21 | 55 | 6.4 | 14.5 | 0.00 | 0.00 | 0.00 | 44 | 1016.5 |
| 20260831014207 | 21 | 98 | 6.4 | 11.3 | 0.00 | 0.00 | 0.00 | 44 | 1016.5 |
| 20260831013706 | 21 | 21 | 6.4 | 11.3 | 0.00 | 0.00 | 0.00 | 48 | 1016.5 |
| 20260831013206 | 21 | 20 | 6.4 | 11.3 | 0.00 | 0.00 | 0.00 | 48 | 1016.5 |
| 20260831012706 | 20 | 9 | 6.4 | 9.7 | 0.00 | 0.00 | 0.00 | 48 | 1016.5 |
| 20260831012210 | 20 | 359 | 8.0 | 11.3 | 0.00 | 0.00 | 0.00 | 49 | 1016.6 |
| 20260831011707 | 20 | 347 | 8.0 | 11.3 | 0.00 | 0.00 | 0.00 | 51 | 1016.6 |
| 20260831011204 | 20 | 352 | 6.4 | 9.7 | 0.00 | 0.00 | 0.00 | 53 | 1016.6 |
| 20260831010706 | 20 | 4 | 8.0 | 11.3 | 0.00 | 0.00 | 0.00 | 49 | 1016.7 |
| 20260831010201 | 20 | 359 | 8.0 | 11.3 | 0.00 | 0.00 | 0.00 | 49 | 1016.7 |
| 20260831010030 | 20 | 9 | 8.0 | 9.7 | 0.00 | 0.00 | 0.00 | 49 | 1016.7 |
| 20260831005203 | 20 | 359 | 8.0 | 9.7 | 0.00 | 0.00 | 0.00 | 47 | 1016.9 |
| 20260831004700 | 20 | 15 | 9.7 | 14.5 | 0.00 | 0.00 | 0.00 | 47 | 1016.9 |
| 20260831004157 | 20 | 9 | 9.7 | 14.5 | 0.00 | 0.00 | 0.00 | 47 | 1016.9 |
| 20260831003647 | 20 | 17 | 8.0 | 12.9 | 0.00 | 0.00 | 0.00 | 47 | 1017.0 |
| 20260831003445 | 21 | 313 | 9.7 | 11.3 | 0.00 | 0.00 | 0.00 | 49 | 1017.0 |
| 20260831002632 | 21 | 17 | 9.7 | 11.3 | 0.00 | 0.00 | 0.00 | 45 | 1017.1 |
| 20260831002131 | 21 | 4 | 8.0 | 11.3 | 0.00 | 0.00 | 0.00 | 47 | 1017.1 |
| 20260831001623 | 21 | 9 | 6.4 | 11.3 | 0.00 | 0.00 | 0.00 | 47 | 1017.1 |
| 20260831001120 | 21 | 351 | 4.8 | 9.7 | 0.00 | 0.00 | 0.00 | 49 | 1017.2 |
| 20260831000605 | 21 | 337 | 4.8 | 6.4 | 0.00 | 0.00 | 0.00 | 46 | 1017.2 |
| 20260831000105 | 21 | 338 | 4.8 | 9.7 | 0.00 | 0.00 | 0.00 | 48 | 1017.2 |
| 20260830235559 | 20 | 4 | 6.4 | 9.7 | 0.00 | 0.00 | 0.00 | 49 | 1017.4 |
| 20260830235054 | 20 | 9 | 8.0 | 11.3 | 0.00 | 0.00 | 0.00 | 51 | 1017.4 |
| 20260830234901 | 20 | 15 | 9.7 | 11.3 | 0.00 | 0.00 | 0.00 | 48 | 1017.4 |
| 20260830234353 | 20 | 13 | 9.7 | 11.3 | 0.00 | 0.00 | 0.00 | 51 | 1017.5 |
| 20260830233546 | 20 | 23 | 8.0 | 11.3 | 0.00 | 0.00 | 0.00 | 47 | 1017.5 |
| 20260830233043 | 20 | 27 | 8.0 | 9.7 | 0.00 | 0.00 | 0.00 | 48 | 1017.5 |
| 20260830232541 | 20 | 359 | 8.0 | 11.3 | 0.00 | 0.00 | 0.00 | 50 | 1017.6 |
| 20260830232335 | 20 | 21 | 8.0 | 11.3 | 0.00 | 0.00 | 0.00 | 53 | 1017.6 |
| 20260830231837 | 20 | 9 | 9.7 | 11.3 | 0.00 | 0.00 | 0.00 | 49 | 1017.6 |
| 20260830231038 | 20 | 19 | 9.7 | 14.5 | 0.00 | 0.00 | 0.00 | 48 | 1017.6 |
| 20260830230902 | 20 | 17 | 9.7 | 14.5 | 0.00 | 0.00 | 0.00 | 51 | 1017.6 |
| 20260830230042 | 20 | 28 | 11.3 | 16.1 | 0.00 | 0.00 | 0.00 | 50 | 1017.6 |
| 20260830225841 | 20 | 28 | 12.9 | 16.1 | 0.00 | 0.00 | 0.00 | 55 | 1017.9 |
| 20260830225038 | 19 | 9 | 12.9 | 16.1 | 0.00 | 0.00 | 0.00 | 51 | 1017.9 |
| 20260830224536 | 19 | 16 | 12.9 | 16.1 | 0.00 | 0.00 | 0.00 | 51 | 1017.9 |
| 20260830224037 | 19 | 17 | 11.3 | 16.1 | 0.00 | 0.00 | 0.00 | 54 | 1018.1 |
| 20260830223630 | 20 | 21 | 9.7 | 14.5 | 0.00 | 0.00 | 0.00 | 55 | 1018.1 |
| 20260830222532 | 19 | 339 | 9.7 | 14.5 | 0.00 | 0.00 | 0.00 | 57 | 1018.1 |
| 20260830222033 | 19 | 18 | 11.3 | 14.5 | 0.00 | 0.00 | 0.00 | 53 | 1018.1 |
| 20260830221530 | 19 | 14 | 12.9 | 16.1 | 0.00 | 0.00 | 0.00 | 52 | 1018.1 |
| 20260830221337 | 19 | 9 | 14.5 | 17.7 | 0.00 | 0.00 | 0.00 | 51 | 1018.2 |
| 20260830220528 | 18 | 9 | 16.1 | 17.7 | 0.00 | 0.00 | 0.00 | 52 | 1018.2 |
| 20260830220017 | 18 | 15 | 14.5 | 19.3 | 0.00 | 0.00 | 0.00 | 51 | 1018.2 |
| 20260830215516 | 19 | 14 | 12.9 | 19.3 | 0.00 | 0.00 | 0.00 | 56 | 1018.6 |
| 20260830215015 | 19 | 9 | 14.5 | 17.7 | 0.00 | 0.00 | 0.00 | 56 | 1018.6 |
| 20260830214823 | 18 | 13 | 16.1 | 24.1 | 0.00 | 0.00 | 0.00 | 54 | 1018.6 |
| 20260830214253 | 18 | 28 | 16.1 | 24.1 | 0.00 | 0.00 | 0.00 | 55 | 1018.7 |
| 20260830213606 | 18 | 359 | 16.1 | 20.9 | 0.00 | 0.00 | 0.00 | 56 | 1018.7 |
| 20260830212513 | 18 | 4 | 14.5 | 17.7 | 0.00 | 0.00 | 0.00 | 61 | 1018.8 |
| 20260830212011 | 18 | 9 | 14.5 | 17.7 | 0.00 | 0.00 | 0.00 | 57 | 1018.8 |
| 20260830211513 | 18 | 9 | 12.9 | 17.7 | 0.00 | 0.00 | 0.00 | 58 | 1018.8 |
| 20260830211012 | 18 | 9 | 9.7 | 17.7 | 0.00 | 0.00 | 0.00 | 58 | 1018.7 |
| 20260830210509 | 19 | 359 | 6.4 | 14.5 | 0.00 | 0.00 | 0.00 | 57 | 1018.7 |
| 20260830205005 | 19 | 21 | 6.4 | 14.5 | 0.00 | 0.00 | 0.00 | 57 | 1018.8 |
| 20260830204506 | 18 | 317 | 6.4 | 14.5 | 0.00 | 0.00 | 0.00 | 54 | 1018.8 |
| 20260830204012 | 18 | 323 | 6.4 | 11.3 | 0.00 | 0.00 | 0.00 | 59 | 1019.1 |
| 20260830203507 | 18 | 353 | 8.0 | 11.3 | 0.00 | 0.00 | 0.00 | 61 | 1019.1 |
| 20260830203006 | 18 | 342 | 6.4 | 9.7 | 0.00 | 0.00 | 0.00 | 59 | 1019.1 |
| 20260830202820 | 18 | 13 | 8.0 | 11.3 | 0.00 | 0.00 | 0.00 | 61 | 1019.1 |
| 20260830202337 | 18 | 9 | 8.0 | 11.3 | 0.00 | 0.00 | 0.00 | 62 | 1019.1 |
| 20260830201817 | 17 | 13 | 9.7 | 11.3 | 0.00 | 0.00 | 0.00 | 60 | 1019.1 |
| 20260830201009 | 17 | 9 | 9.7 | 12.9 | 0.00 | 0.00 | 0.00 | 62 | 1019.1 |
| 20260830200457 | 17 | 13 | 9.7 | 16.1 | 0.00 | 0.00 | 0.00 | 63 | 1019.1 |
| 20260830195948 | 17 | 32 | 9.7 | 16.1 | 0.00 | 0.00 | 0.00 | 65 | 1019.1 |
| 20260830195742 | 17 | 16 | 9.7 | 16.1 | 0.00 | 0.00 | 0.00 | 68 | 1019.2 |
| 20260830194944 | 17 | 4 | 11.3 | 17.7 | 0.00 | 0.00 | 0.00 | 67 | 1019.2 |
| 20260830194448 | 16 | 344 | 14.5 | 17.7 | 0.00 | 0.00 | 0.00 | 68 | 1019.2 |
| 20260830193939 | 16 | 9 | 14.5 | 17.7 | 0.00 | 0.00 | 0.00 | 67 | 1019.5 |
| 20260830193439 | 16 | 16 | 14.5 | 19.3 | 0.00 | 0.00 | 0.00 | 68 | 1019.5 |